La Crosse, WI

8:51 PM CST on November 22, 2017 (GMT -0600)
La Crosse Municipal

Weather History for KLSE - January, 2013

Change the Weather History Date:

Saturday, January 5, 2013

  Actual Average Record
Temperature  
Mean Temperature 22 °F 17 °F  
Max Temperature 33 °F 26 °F 53 °F (2012)
Min Temperature 10 °F 9 °F -29 °F (1884)
Degree Days  
Heating Degree Days 43 48  
Month to date heating degree days 250 236  
Since 1 July heating degree days 2940 3080  
Cooling Degree Days 0 0  
Month to date cooling degree days 0 0  
Year to date cooling degree days 0 0  
Moisture  
Dew Point 15 °F    
Average Humidity 77    
Maximum Humidity 92    
Minimum Humidity 61    
Precipitation  
Precipitation 0.00 in 0.03 in 1.67 in (1946)
Month to date precipitation T 0.17  
Year to date precipitation T 0.17  
Snow  
Snow 0.00 in 0.30 in 8.80 in (1929)
Month to date snowfall T 1.4  
Since 1 July snowfall 18.4 17.0  
Snow Depth 5.00 in    
Sea Level Pressure  
Sea Level Pressure 30.06 in    
Wind  
Wind Speed 9 mph (South)    
Max Wind Speed 22 mph    
Max Gust Speed 25 mph    
Visibility 9 miles    
Events      
T = Trace of Precipitation, MM = Missing Value Source: NWS Daily Summary

Daily Weather History Graph

Daily Weather History Graph

Search for Another Location

Airport or City:

Trip Planner

Search our weather history database for the weather conditions in past years. The results will help you decide how hot, cold, wet, or windy it might be!

Date:

Astronomy

Jan. 05, 2013 Rise Set
Actual Time 7:39 AM CST 4:42 PM CST
Civil Twilight 7:06 AM CST 5:14 PM CST
Nautical Twilight 6:30 AM CST 5:50 PM CST
Astronomical Twilight 5:55 AM CST 6:25 PM CST
Moon 12:38 AM CST (1/5) 11:38 AM CST (1/5)
Length of Visible Light 10h 08m
Length of Day
9h 02m
Last Quarter, 44% of the Moon is Illuminated
Jan 5
Last Quarter
Jan 11
New
Jan 18
First Quarter
Jan 26
Full
Feb 3
Last Quarter

Hourly Weather History & Observations

Time (CST) Temp. Windchill Dew Point Humidity Pressure Visibility Wind Dir Wind Speed Gust Speed Precip Events Conditions
12:53 AM 14.0 °F 8.2 °F 10.0 °F 84% 30.17 in 10.0 mi ENE 3.5 mph - N/A   Clear
1:53 AM 15.1 °F 3.3 °F 10.9 °F 84% 30.22 in 10.0 mi SSE 9.2 mph - N/A   Clear
2:53 AM 12.9 °F 6.9 °F 10.0 °F 88% 30.20 in 9.0 mi SE 3.5 mph - N/A   Clear
3:53 AM 10.9 °F 0.2 °F 8.1 °F 88% 30.18 in 9.0 mi South 6.9 mph - N/A   Clear
4:53 AM 12.0 °F -0.4 °F 9.0 °F 88% 30.15 in 7.0 mi SSE 9.2 mph - N/A   Clear
5:53 AM 12.9 °F 2.6 °F 10.0 °F 88% 30.13 in 8.0 mi South 6.9 mph - N/A   Clear
6:53 AM 12.9 °F 0.7 °F 10.0 °F 88% 30.13 in 8.0 mi SE 9.2 mph - N/A   Clear
7:53 AM 12.9 °F 5.2 °F 10.0 °F 88% 30.11 in 6.0 mi ESE 4.6 mph - N/A   Clear
8:53 AM 15.1 °F 7.7 °F 12.0 °F 88% 30.11 in 6.0 mi SE 4.6 mph - N/A   Clear
9:53 AM 21.0 °F 9.3 °F 16.0 °F 81% 30.10 in 9.0 mi South 11.5 mph - N/A   Clear
11:53 AM 26.1 °F 16.2 °F 19.0 °F 75% 30.01 in 10.0 mi SSE 10.4 mph - N/A   Clear
12:53 PM 28.9 °F 18.2 °F 19.9 °F 69% 29.98 in 10.0 mi South 13.8 mph - N/A   Clear
1:53 PM 30.0 °F 25.2 °F 21.9 °F 72% 29.95 in 10.0 mi South 4.6 mph - N/A   Clear
2:53 PM 33.1 °F 22.6 °F 21.9 °F 64% 29.94 in 10.0 mi SSW 16.1 mph - N/A   Clear
3:53 PM 30.9 °F 20.7 °F 23.0 °F 72% 29.93 in 10.0 mi SSW 13.8 mph - N/A   Clear
4:10 PM 30.2 °F 20.2 °F 24.8 °F 80% 29.88 in 10.0 mi SW 12.7 mph 24.2 mph N/A   Mostly Cloudy
5:53 PM 32.0 °F 24.2 °F 25.0 °F 75% 29.92 in 10.0 mi SSW 9.2 mph - N/A   Overcast
10:53 PM 19.9 °F 13.4 °F 12.9 °F 74% 30.00 in 10.0 mi NNW 4.6 mph - N/A   Clear
11:53 PM 21.0 °F 12.4 °F 12.9 °F 71% 30.01 in 9.0 mi NW 6.9 mph - N/A   Clear